Regional Weather Roundup
Issued by NWS

Home | Current Version | Previous Version | Text Only | Print | Product List | Glossary Off
Versions: 1 2 3 4 5 6 7 8 9 10 11 12 13 14 15 16 17 18 19 20 21 22 23 24 25 26 27 28 29 30 31 32 33 34 35 36 37 38 39 40 41 42 43 44 45 46 47 48 49 50

212
ASUS43 KLSX 220010
RWRMO

WEATHER SUMMARY FOR MISSOURI
NATIONAL WEATHER SERVICE SPRINGFIELD MO
700 PM CDT FRI JUL 21 2017

NOTE: "FAIR" INDICATES FEW OR NO CLOUDS BELOW 12,000 FEET WITH NO
       SIGNIFICANT WEATHER AND/OR OBSTRUCTIONS TO VISIBILITY.
       CURRENT SKY AND/OR WEATHER CONDITIONS ARE NOT AVAILABLE FOR
       CHILLICOTHE AND FARMINGTON.

MOZ001>031-035>038-043-044-053-054-220100-
...NORTHERN AND WESTERN MISSOURI...

CITY           SKY/WX    TMP DP  RH WIND       PRES   REMARKS
KANSAS CTY INT SUNNY     94  76  55 S14       29.83F HX 106
6HR MIN TEMP:  93; 6HR MAX TEMP:  98;

KANSAS C DTWN  SUNNY     95  75  52 S16G23    29.82S HX 107
6HR MIN TEMP:  95; 6HR MAX TEMP:  98;

LEE`S SUMMIT   SUNNY     94  75  54 S12G24    29.85F HX 105
6HR MIN TEMP:  94; 6HR MAX TEMP:  97;

ST JOSEPH      SUNNY     93  79  63 S9        29.79F HX 110
6HR MIN TEMP:  93; 6HR MAX TEMP:  95;

CHILLICOTHE      N/A     92  80  68 S6        29.83F HX 110
6HR MIN TEMP:  91; 6HR MAX TEMP:  94;

KIRKSVILLE     SUNNY     92  76  59 S10       29.86S HX 104
6HR MIN TEMP:  92; 6HR MAX TEMP:  96;


$$
MOZ066>068-077>081-088>096-101>105-220100-
...SOUTHWEST MISSOURI...

CITY           SKY/WX    TMP DP  RH WIND       PRES   REMARKS
SPRINGFIELD    SUNNY     93  69  45 SW12      29.94S HX  98
6HR MIN TEMP:  93; 6HR MAX TEMP:  97;

JOPLIN         SUNNY     95  70  44 SW13      29.91S HX 101
6HR MIN TEMP:  95; 6HR MAX TEMP: 100; 6HR PCP: TRACE;

BRANSON        MOSUNNY   91  70  49 SW9       29.97F HX  97

$$
MOZ032>034-039>042-045>050-055>058-069>072-220100-
...CENTRAL MISSOURI...

CITY           SKY/WX    TMP DP  RH WIND       PRES   REMARKS
COLUMBIA       SUNNY     95  71  45 SW8       29.88F HX 102
6HR MIN TEMP:  95; 6HR MAX TEMP:  99;

JEFFERSON CITY SUNNY     97  70  41 SW8       29.85F HX 103
6HR MIN TEMP:  94; 6HR MAX TEMP:  98;

ROLLA          SUNNY     90  73  57 S7        29.91S HX  98
6HR MIN TEMP:  90; 6HR MAX TEMP:  95;

SEDALIA        SUNNY     94  73  50 SW9       29.89S HX 103
6HR MIN TEMP:  94; 6HR MAX TEMP:  98;

WARRENSBURG    SUNNY     93  70  46 S9        29.86F HX  99
OSAGE BEACH    SUNNY     96  69  41 SW8       29.90S HX 102

$$
MOZ051-052-059>065-220100-
...EAST CENTRAL MISSOURI...

CITY           SKY/WX    TMP DP  RH WIND       PRES   REMARKS
ST LOUIS INTL  MOSUNNY  100  66  32 W8        29.87F HX 104
6HR MIN TEMP: 100; 6HR MAX TEMP: 104;

SPIRIT OF STL  MOSUNNY   97  74  47 VRB3      29.86S HX 108
6HR MIN TEMP:  96; 6HR MAX TEMP: 101;

ST CHARLES     SUNNY     96  69  41 W5        29.85S HX 102
6HR MIN TEMP:  96; 6HR MAX TEMP: 101;


$$
MOZ072>076-082>087-097>100-106>115-220100-
...SOUTH CENTRAL AND SOUTHEAST MISSOURI...

CITY           SKY/WX    TMP DP  RH WIND       PRES   REMARKS
CAPE GIRARDEAU SUNNY     90  78  68 SW7       29.90F HX 104
6HR MIN TEMP:  90; 6HR MAX TEMP:  96;

FARMINGTON     SUNNY     92  75  57 S10       29.93F HX 103
6HR MIN TEMP:  92; 6HR MAX TEMP:  97;

POPLAR BLUFF   SUNNY     91  78  65 S6        29.91S HX 106
6HR MIN TEMP:  91; 6HR MAX TEMP:  94;

WEST PLAINS    SUNNY     91  72  53 SW8       29.98S HX  98
6HR MIN TEMP:  91; 6HR MAX TEMP:  95;


$$




USA.gov is the U.S. government's official web portal to all federal, state and local government web resources and services.